Location: Kearney
(40.6990°N, 99.0810°W)
Time: 04:38:21
(UTC-05:00)

Ariane Rocket - Pass Details

Date: 18 December 2017
Orbit: 760 x 771 km, 98.8° (Epoch: 22 April)

Event Time Altitude Azimuth Distance (km) Brightness Sun altitude
Rises 18:27:12 0° 178° (S) 3,211 6.5 -13.9°
Reaches altitude 10° 18:29:33 10° 183° (S) 2,288 5.7 -14.3°
Maximum altitude 18:34:26 51° 260° (W) 952 3.9 -15.2°
Drops below altitude 10° 18:39:22 10° 336° (NNW) 2,299 5.6 -16.1°
Sets 18:41:45 0° 341° (NNW) 3,229 6.3 -16.5°
